QPF
0.00 0.00 0.00 0.00 0.00 0.00 0.00 0.00 0.00 0.00 0.00 0.00 0.00 0.00 0.00 0.00 0.00 0.00 0.00 0.00 0.00 0.00 0.00 0.00 0.00 0.00 0.00 0.00 0.00 0.00 0.00 0.00 0.00 0.00 0.00 0.00 0.00 0.01 0.02 0.01 0.00 0.00 0.00 0.00 0.00
0.00 0.00 0.00 0.00 0.00 0.00 0.00 0.00 0.00 0.00 0.00 0.00 0.00 0.00 0.00 0.00 0.00 0.00 0.00 0.00 0.00 0.00 0.00 0.00 0.00 0.00 0.00 0.00 0.00 0.00 0.00 0.00 0.00 0.00 0.00 0.00 0.00 0.01 0.01 0.02 0.01 0.00 0.00 0.00 0.00
0.00 0.00 0.00 0.00 0.00 0.00 0.00 0.00 0.00 0.00 0.00 0.00 0.00 0.00 0.00 0.00 0.00 0.00 0.00 0.00 0.00 0.00 0.00 0.00 0.00 0.00 0.00 0.00 0.00 0.00 0.00 0.00 0.00 0.00 0.00 0.00 0.00 0.00 0.01 0.01 0.01 0.00 0.00 0.00 0.00
0.00 0.00 0.00 0.00 0.00 0.00 0.00 0.00 0.00 0.00 0.00 0.00 0.00 0.00 0.00 0.00 0.00 0.00 0.00 0.00 0.00 0.00 0.00 0.00 0.00 0.00 0.00 0.00 0.00 0.00 0.00 0.00 0.00 0.00 0.00 0.00 0.00 0.00 0.00 0.01 0.02 0.00 0.00 0.00 0.00
0.00 0.00 0.00 0.00 0.00 0.00 0.00 0.00 0.00 0.00 0.00 0.00 0.00 0.00 0.00 0.00 0.00 0.00 0.00 0.00 0.00 0.00 0.00 0.00 0.00 0.00 0.00 0.00 0.00 0.00 0.00 0.00 0.00 0.00 0.00 0.00 0.00 0.00 0.01 0.02 0.01 0.02 0.00 0.00 0.00
0.00 0.00 0.00 0.00 0.00 0.00 0.00 0.00 0.00 0.00 0.00 0.00 0.00 0.00 0.00 0.00 0.00 0.00 0.00 0.00 0.00 0.00 0.00 0.00 0.00 0.00 0.00 0.00 0.00 0.00 0.00 0.00 0.00 0.00 0.00 0.00 0.00 0.00 0.00 0.01 0.01 0.03 0.01 0.00 0.00
0.00 0.00 0.00 0.00 0.00 0.00 0.00 0.00 0.00 0.00 0.00 0.00 0.00 0.00 0.00 0.00 0.00 0.00 0.00 0.00 0.00 0.00 0.00 0.00 0.00 0.00 0.00 0.00 0.00 0.00 0.00 0.00 0.00 0.00 0.00 0.00 0.00 0.00 0.00 0.00 0.01 0.03 0.04 0.01 0.00
0.00 0.00 0.00 0.00 0.00 0.00 0.00 0.00 0.00 0.00 0.00 0.00 0.00 0.00 0.00 0.00 0.00 0.00 0.00 0.00 0.00 0.00 0.00 0.00 0.00 0.00 0.00 0.00 0.00 0.00 0.00 0.00 0.00 0.00 0.00 0.00 0.00 0.00 0.00 0.00 0.00 0.01 0.02 0.02 0.00
0.00 0.00 0.00 0.00 0.00 0.00 0.00 0.00 0.00 0.00 0.00 0.00 0.00 0.00 0.00 0.00 0.00 0.00 0.00 0.00 0.00 0.00 0.00 0.00 0.00 0.00 0.00 0.00 0.00 0.00 0.00 0.00 0.00 0.00 0.00 0.00 0.00 0.00 0.00 0.00 0.00 0.00 0.01 0.01 0.00
0.00 0.00 0.00 0.00 0.00 0.00 0.00 0.00 0.00 0.00 0.00 0.00 0.00 0.00 0.00 0.00 0.00 0.00 0.00 0.00 0.00 0.00 0.00 0.00 0.00 0.00 0.00 0.00 0.00 0.00 0.00 0.00 0.00 0.00 0.00 0.00 0.00 0.00 0.00 0.00 0.01 0.00 0.01 0.02 0.01
0.00 0.00 0.00 0.00 0.00 0.00 0.00 0.00 0.00 0.00 0.00 0.00 0.00 0.00 0.00 0.00 0.00 0.00 0.00 0.00 0.00 0.00 0.00 0.00 0.00 0.00 0.00 0.00 0.00 0.00 0.00 0.00 0.00 0.00 0.00 0.00 0.00 0.00 0.00 0.00 0.00 0.00 0.01 0.01 0.00
0.00 0.00 0.00 0.00 0.00 0.00 0.00 0.00 0.00 0.00 0.00 0.00 0.00 0.00 0.00 0.00 0.00 0.00 0.00 0.00 0.00 0.00 0.00 0.00 0.00 0.00 0.00 0.00 0.00 0.00 0.00 0.00 0.01 0.00 0.00 0.00 0.00 0.00 0.00 0.01 0.01 0.01 0.01 0.00 0.00
0.00 0.00 0.00 0.00 0.00 0.00 0.00 0.00 0.00 0.00 0.00 0.00 0.00 0.00 0.00 0.00 0.00 0.00 0.00 0.00 0.00 0.00 0.00 0.00 0.00 0.00 0.00 0.00 0.00 0.00 0.00 0.00 0.02 0.03 0.01 0.00 0.00 0.00 0.00 0.00 0.00 0.00 0.00 0.00 0.00
0.00 0.00 0.00 0.00 0.00 0.00 0.00 0.00 0.00 0.00 0.00 0.00 0.00 0.00 0.00 0.00 0.00 0.00 0.00 0.00 0.00 0.00 0.00 0.00 0.00 0.00 0.00 0.00 0.01 0.00 0.00 0.03 0.04 0.09 0.03 0.00 0.00 0.00 0.00 0.00 0.00 0.00 0.00 0.01 0.02
0.00 0.00 0.00 0.00 0.00 0.00 0.00 0.00 0.00 0.00 0.00 0.00 0.00 0.00 0.00 0.00 0.00 0.00 0.00 0.00 0.00 0.00 0.00 0.01 0.01 0.05 0.01 0.00 0.01 0.00 0.00 0.05 0.11 0.09 0.03 0.01 0.00 0.00 0.00 0.00 0.00 0.00 0.00 0.01 0.01
0.00 0.00 0.00 0.00 0.00 0.00 0.00 0.00 0.00 0.00 0.00 0.00 0.00 0.00 0.00 0.00 0.00 0.00 0.00 0.00 0.00 0.00 0.00 0.01 0.01 0.06 0.02 0.01 0.00 0.01 0.03 0.13 0.10 0.07 0.04 0.00 0.00 0.00 0.00 0.00 0.00 0.00 0.00 0.00 0.00
0.00 0.00 0.00 0.00 0.00 0.00 0.00 0.00 0.00 0.00 0.00 0.00 0.00 0.00 0.00 0.00 0.00 0.00 0.00 0.00 0.00 0.00 0.00 0.00 0.01 0.02 0.03 0.06 0.02 0.03 0.07 0.07 0.05 0.03 0.02 0.00 0.00 0.00 0.00 0.00 0.00 0.00 0.00 0.00 0.00
0.00 0.00 0.00 0.00 0.00 0.00 0.00 0.00 0.00 0.00 0.00 0.00 0.00 0.00 0.00 0.00 0.00 0.00 0.00 0.00 0.00 0.00 0.00 0.00 0.01 0.01 0.03 0.04 0.03 0.02 0.04 0.04 0.04 0.03 0.01 0.00 0.00 0.00 0.00 0.00 0.00 0.00 0.00 0.00 0.00
0.00 0.00 0.00 0.00 0.00 0.00 0.00 0.00 0.00 0.00 0.00 0.00 0.00 0.00 0.00 0.00 0.00 0.00 0.00 0.00 0.00 0.00 0.00 0.00 0.00 0.00 0.02 0.01 0.02 0.04 0.05 0.01 0.01 0.01 0.01 0.00 0.00 0.00 0.00 0.00 0.00 0.00 0.00 0.00 0.00
0.00 0.00 0.00 0.00 0.00 0.00 0.00 0.00 0.00 0.00 0.00 0.00 0.00 0.00 0.00 0.00 0.00 0.00 0.00 0.00 0.00 0.00 0.00 0.00 0.00 0.00 0.01 0.00 0.01 0.02 0.01 0.00 0.01 0.01 0.01 0.00 0.00 0.00 0.00 0.00 0.00 0.00 0.00 0.00 0.00
0.00 0.00 0.00 0.00 0.00 0.00 0.00 0.00 0.00 0.00 0.00 0.00 0.00 0.00 0.00 0.00 0.00 0.00 0.00 0.00 0.00 0.00 0.00 0.00 0.00 0.00 0.01 0.00 0.00 0.00 0.01 0.01 0.01 0.01 0.01 0.00 0.00 0.00 0.00 0.00 0.00 0.00 0.00 0.00 0.00
0.00 0.00 0.00 0.00 0.00 0.00 0.00 0.00 0.00 0.00 0.00 0.00 0.00 0.00 0.00 0.00 0.00 0.00 0.00 0.00 0.00 0.00 0.00 0.00 0.00 0.00 0.00 0.00 0.00 0.00 0.00 0.01 0.04 0.01 0.00 0.00 0.00 0.00 0.00 0.00 0.00 0.00 0.00 0.00 0.00
0.00 0.00 0.00 0.00 0.00 0.00 0.00 0.00 0.00 0.00 0.00 0.00 0.00 0.00 0.00 0.00 0.00 0.00 0.00 0.00 0.00 0.00 0.00 0.00 0.00 0.00 0.00 0.00 0.00 0.00 0.00 0.00 0.00 0.00 0.00 0.00 0.00 0.00 0.00 0.00 0.00 0.00 0.00 0.00 0.00
0.00 0.00 0.00 0.00 0.00 0.00 0.00 0.00 0.00 0.00 0.00 0.00 0.00 0.00 0.00 0.00 0.00 0.00 0.00 0.00 0.00 0.00 0.00 0.00 0.00 0.00 0.00 0.00 0.00 0.00 0.00 0.00 0.00 0.00 0.00 0.00 0.00 0.00 0.00 0.00 0.00 0.00 0.00 0.00 0.00
0.00 0.00 0.00 0.00 0.00 0.00 0.00 0.00 0.00 0.00 0.00 0.00 0.00 0.00 0.00 0.00 0.00 0.00 0.00 0.00 0.00 0.00 0.00 0.00 0.00 0.00 0.00 0.00 0.00 0.00 0.00 0.00 0.00 0.00 0.00 0.00 0.00 0.00 0.00 0.00 0.00 0.00 0.00 0.00 0.00
0.00 0.00 0.00 0.00 0.00 0.00 0.00 0.00 0.00 0.00 0.00 0.00 0.00 0.00 0.00 0.00 0.00 0.00 0.00 0.00 0.00 0.00 0.00 0.00 0.00 0.00 0.00 0.00 0.00 0.00 0.00 0.00 0.00 0.00 0.00 0.00 0.00 0.00 0.00 0.00 0.00 0.00 0.00 0.00 0.00
0.00 0.00 0.00 0.00 0.00 0.00 0.00 0.00 0.00 0.00 0.00 0.00 0.00 0.00 0.00 0.00 0.00 0.00 0.00 0.00 0.00 0.00 0.00 0.00 0.00 0.00 0.00 0.00 0.00 0.00 0.00 0.00 0.00 0.00 0.00 0.00 0.00 0.00 0.00 0.00 0.00 0.00 0.00 0.00 0.00
MSLP
1021.87 1021.49 1021.14 1021.08 1020.90 1020.65 1020.32 1019.94 1019.66 1019.40 1018.90 1018.42 1017.96 1017.66 1017.33 1016.77 1016.01 1014.81 1014.30 1014.44 1014.10 1013.82 1013.14 1012.55 1012.21 1012.03 1011.81 1011.21 1010.89 1010.65 1009.33 1007.42 1006.85 1006.72 1006.38 1006.89 1006.96 1007.36 1007.57 1007.71 1007.86 1008.03 1007.99 1008.48 1010.06
1021.74 1021.58 1021.29 1021.13 1020.95 1020.46 1020.27 1019.95 1019.75 1019.38 1018.70 1018.43 1017.94 1017.65 1017.15 1016.81 1015.87 1014.28 1014.42 1014.42 1014.19 1013.88 1013.07 1012.52 1012.15 1011.86 1011.36 1010.91 1010.71 1009.97 1008.61 1007.29 1007.00 1006.71 1006.52 1006.47 1006.75 1007.28 1007.68 1007.68 1007.69 1008.04 1008.95 1009.12 1010.36
1021.74 1021.43 1021.30 1021.17 1020.84 1020.50 1020.15 1019.97 1019.68 1019.18 1018.64 1018.30 1017.99 1017.71 1017.10 1016.67 1015.44 1014.11 1014.37 1014.23 1014.03 1013.66 1013.37 1012.86 1012.62 1012.16 1011.42 1011.01 1010.19 1009.41 1008.08 1007.67 1007.39 1007.26 1007.03 1006.77 1006.92 1007.14 1007.04 1007.14 1006.81 1007.28 1008.50 1009.32 1010.14
1021.79 1021.60 1021.35 1021.07 1020.71 1020.40 1020.16 1019.89 1019.41 1018.93 1018.54 1018.31 1018.06 1017.57 1016.82 1016.17 1014.66 1014.07 1014.47 1014.34 1014.05 1013.53 1013.17 1012.81 1012.53 1011.96 1011.55 1010.65 1010.08 1009.52 1008.70 1008.35 1007.80 1007.45 1007.36 1006.90 1006.70 1006.85 1006.76 1006.42 1007.02 1007.60 1008.07 1009.42 1009.61
1021.85 1021.57 1021.33 1021.03 1020.76 1020.44 1020.07 1019.63 1019.18 1018.73 1018.44 1018.16 1017.92 1017.56 1016.53 1015.06 1013.80 1013.99 1014.42 1014.19 1013.70 1013.43 1012.98 1012.70 1012.31 1011.94 1011.44 1010.75 1010.41 1009.50 1008.97 1008.33 1008.11 1007.66 1007.44 1007.20 1006.81 1006.52 1006.77 1006.91 1007.78 1008.06 1008.16 1008.95 1009.33
1021.76 1021.53 1021.23 1020.92 1020.57 1020.09 1019.64 1019.28 1018.80 1018.33 1018.09 1017.90 1017.73 1017.63 1016.45 1014.60 1013.97 1014.13 1014.30 1014.08 1013.76 1013.35 1013.00 1012.90 1012.33 1012.15 1011.70 1011.27 1010.71 1009.47 1009.22 1008.59 1008.02 1007.70 1007.49 1007.26 1006.76 1006.95 1006.24 1006.81 1007.71 1007.96 1007.99 1008.80 1009.21
1021.64 1021.26 1020.88 1020.53 1020.22 1019.79 1019.28 1018.90 1018.37 1017.92 1017.62 1017.55 1017.63 1017.24 1016.20 1014.38 1014.00 1014.03 1014.18 1013.82 1013.81 1013.51 1013.13 1013.04 1012.82 1012.55 1011.96 1011.17 1010.70 1010.47 1009.59 1008.65 1007.82 1007.58 1007.44 1007.51 1006.59 1006.29 1006.14 1007.05 1007.28 1008.06 1008.00 1008.62 1009.38
1021.37 1021.13 1020.85 1020.46 1020.00 1019.53 1019.03 1018.56 1017.95 1017.48 1017.28 1017.30 1017.49 1017.03 1014.84 1014.01 1014.00 1013.85 1013.67 1013.45 1013.73 1013.69 1013.50 1013.31 1013.14 1012.72 1012.24 1011.54 1010.76 1010.06 1009.14 1008.08 1007.43 1007.28 1007.00 1007.44 1005.09 1005.66 1006.38 1006.70 1006.82 1007.59 1007.93 1008.70 1009.44
1021.50 1021.21 1020.81 1020.43 1019.93 1019.27 1018.58 1018.29 1017.80 1017.49 1017.33 1017.39 1017.24 1016.76 1014.18 1014.13 1013.81 1013.47 1013.47 1013.16 1013.17 1013.29 1013.31 1013.15 1013.08 1012.53 1012.24 1011.55 1010.45 1009.54 1008.04 1007.11 1006.95 1006.78 1006.87 1006.75 1005.33 1005.22 1006.32 1006.51 1006.74 1007.32 1007.98 1008.28 1009.13
1021.46 1021.20 1020.85 1020.39 1019.87 1019.17 1018.31 1017.88 1017.80 1017.55 1017.31 1017.15 1016.91 1016.50 1014.06 1013.64 1013.53 1013.39 1013.30 1013.37 1012.90 1012.88 1012.95 1012.96 1012.50 1012.06 1011.49 1010.95 1009.46 1008.66 1008.04 1007.35 1006.37 1006.42 1006.71 1006.23 1005.64 1005.96 1006.54 1006.50 1006.73 1007.17 1007.62 1007.78 1008.18
1021.32 1020.98 1020.74 1020.38 1019.80 1019.15 1018.01 1017.49 1017.49 1016.98 1016.47 1016.42 1016.17 1015.60 1014.05 1013.52 1013.45 1012.95 1013.05 1013.08 1012.84 1012.68 1012.10 1012.43 1011.96 1010.91 1010.55 1010.48 1010.21 1009.60 1008.63 1007.35 1006.43 1006.34 1006.17 1005.63 1005.64 1005.99 1006.46 1006.61 1006.68 1006.98 1007.38 1007.53 1007.86
1021.41 1020.96 1020.62 1020.32 1019.86 1019.07 1018.29 1018.36 1019.52 1019.69 1017.70 1015.96 1015.71 1015.27 1014.37 1014.31 1013.19 1012.26 1012.83 1012.65 1012.47 1011.96 1012.17 1012.06 1010.85 1010.46 1010.46 1010.61 1010.47 1009.83 1008.95 1007.72 1006.90 1005.98 1006.00 1005.38 1005.10 1005.23 1006.00 1006.14 1006.31 1006.67 1006.94 1007.16 1007.45
1021.41 1021.11 1020.57 1020.07 1019.70 1019.11 1018.95 1019.48 1019.85 1019.65 1018.28 1015.41 1014.80 1014.22 1013.87 1014.10 1012.94 1012.14 1012.50 1012.37 1012.06 1011.85 1011.86 1011.63 1010.45 1010.23 1010.23 1010.21 1010.08 1009.53 1008.81 1008.01 1007.16 1006.61 1006.26 1005.16 1004.70 1004.68 1005.63 1005.97 1006.38 1006.45 1006.72 1007.03 1007.52
1021.52 1021.17 1020.67 1019.90 1019.90 1019.68 1019.30 1019.67 1019.70 1019.58 1017.48 1014.86 1013.94 1013.27 1013.42 1013.42 1012.62 1012.06 1012.20 1012.19 1011.77 1011.73 1011.80 1011.29 1010.63 1010.39 1010.10 1009.76 1009.62 1008.98 1008.56 1008.14 1007.57 1007.22 1005.79 1005.30 1003.69 1003.59 1004.27 1005.09 1005.71 1006.03 1006.51 1007.00 1007.61
1021.49 1021.26 1020.89 1020.14 1019.80 1019.43 1019.69 1019.68 1019.52 1019.25 1016.30 1014.36 1013.19 1013.06 1012.72 1012.91 1012.32 1011.72 1011.99 1012.00 1011.67 1012.05 1012.24 1011.18 1010.74 1010.44 1009.66 1009.16 1009.04 1008.63 1008.51 1008.24 1008.11 1007.14 1005.70 1005.10 1003.97 1002.43 1003.85 1004.08 1004.57 1005.25 1005.82 1006.88 1007.36
1021.42 1021.14 1020.89 1020.45 1020.01 1019.73 1019.78 1019.57 1019.16 1017.93 1015.07 1013.76 1013.11 1012.94 1012.29 1012.30 1011.94 1011.71 1011.63 1011.94 1012.25 1012.15 1012.28 1011.67 1011.28 1011.14 1010.07 1009.30 1008.95 1008.54 1008.65 1008.80 1008.55 1008.03 1006.51 1004.48 1004.00 1002.42 1003.13 1003.65 1004.03 1004.72 1005.67 1006.64 1007.34
1021.33 1021.07 1020.77 1020.49 1019.94 1020.01 1019.72 1018.93 1017.52 1015.97 1014.99 1013.93 1013.41 1013.09 1012.82 1012.21 1011.72 1011.63 1011.35 1011.35 1012.01 1012.18 1012.48 1012.07 1011.29 1011.07 1010.87 1009.45 1009.06 1008.88 1008.41 1008.78 1009.31 1008.20 1006.57 1004.94 1004.51 1002.75 1003.75 1004.41 1005.02 1005.62 1006.17 1007.10 1007.88
1021.12 1020.87 1020.71 1020.19 1020.21 1020.21 1019.38 1017.94 1016.32 1015.42 1014.70 1014.36 1013.97 1013.31 1012.83 1012.60 1011.84 1011.61 1011.39 1011.26 1012.14 1012.81 1013.41 1013.42 1012.15 1011.42 1010.87 1010.40 1009.24 1008.66 1008.74 1009.22 1008.60 1007.04 1005.37 1005.76 1004.20 1003.48 1004.50 1005.41 1006.14 1006.80 1006.96 1007.94 1008.64
1020.82 1020.41 1020.12 1019.92 1020.17 1020.02 1018.80 1016.79 1015.59 1015.46 1015.40 1014.80 1013.90 1013.38 1012.82 1012.82 1012.87 1011.97 1011.45 1011.75 1012.08 1012.58 1013.17 1013.70 1012.71 1011.62 1010.74 1010.63 1010.14 1009.27 1009.75 1011.45 1010.73 1007.34 1005.58 1004.92 1004.19 1004.30 1005.18 1005.88 1006.64 1007.22 1007.92 1008.78 1009.39
1020.50 1019.92 1019.88 1020.17 1020.23 1019.42 1017.97 1016.71 1016.18 1016.04 1015.75 1015.32 1014.58 1014.14 1013.36 1012.89 1012.57 1012.03 1011.68 1012.09 1012.29 1012.61 1012.85 1013.53 1012.99 1011.74 1010.90 1010.32 1009.85 1009.54 1010.18 1011.11 1010.62 1007.57 1005.38 1004.57 1004.26 1003.90 1004.97 1005.71 1006.90 1007.71 1008.40 1009.43 1010.10
1020.42 1019.38 1019.95 1020.06 1019.90 1018.75 1017.27 1016.98 1016.65 1016.28 1016.20 1015.62 1014.98 1014.58 1014.01 1013.75 1013.29 1012.52 1012.17 1012.18 1012.62 1012.54 1012.71 1012.84 1012.95 1012.20 1010.76 1009.99 1009.63 1009.18 1009.24 1009.04 1008.43 1007.72 1005.82 1004.37 1004.72 1005.35 1005.63 1006.29 1007.03 1007.91 1009.02 1009.90 1010.54
1020.36 1019.32 1019.89 1019.83 1019.00 1018.72 1017.70 1017.63 1017.50 1016.45 1016.19 1015.82 1015.62 1015.13 1014.56 1014.22 1013.59 1013.06 1012.62 1012.60 1013.11 1013.03 1012.40 1012.46 1012.14 1012.07 1011.23 1010.06 1009.91 1009.54 1008.80 1008.32 1007.69 1007.27 1006.75 1005.98 1005.76 1006.13 1006.43 1006.91 1007.53 1008.59 1009.71 1010.57 1011.29
1019.98 1019.62 1019.69 1019.56 1018.38 1018.13 1018.20 1017.82 1017.46 1016.85 1016.31 1015.96 1015.64 1015.54 1015.05 1014.54 1014.07 1013.46 1013.10 1013.03 1013.33 1013.11 1012.82 1012.39 1011.55 1010.93 1010.56 1009.95 1009.79 1009.19 1008.82 1008.61 1008.07 1007.60 1006.81 1006.28 1006.04 1006.60 1006.78 1007.40 1008.18 1009.11 1010.17 1011.09 1011.86
1020.31 1019.56 1019.25 1019.10 1019.40 1018.73 1018.35 1017.80 1017.39 1017.20 1016.87 1016.63 1016.20 1015.86 1015.47 1014.73 1014.46 1013.73 1013.43 1013.22 1013.34 1013.38 1013.32 1012.97 1011.53 1010.97 1010.36 1009.88 1010.18 1009.42 1009.00 1008.74 1008.22 1007.64 1007.10 1006.71 1006.20 1006.14 1007.02 1007.88 1008.76 1009.56 1010.48 1011.27 1011.97
1020.44 1019.74 1019.84 1018.84 1019.02 1018.97 1018.90 1018.48 1017.90 1017.37 1017.20 1016.81 1016.49 1016.47 1016.37 1015.59 1014.74 1014.13 1013.88 1013.58 1013.29 1013.55 1013.24 1013.03 1011.41 1010.90 1010.25 1009.77 1009.69 1009.49 1009.25 1009.11 1008.79 1008.30 1007.88 1007.26 1007.17 1007.03 1007.53 1008.15 1008.69 1009.59 1010.59 1011.42 1012.17
1020.29 1020.10 1020.41 1019.59 1019.69 1019.39 1019.04 1018.35 1018.28 1017.80 1017.71 1016.98 1016.83 1016.79 1016.77 1016.35 1015.70 1014.93 1014.55 1014.05 1013.67 1013.41 1013.30 1013.09 1011.77 1011.08 1009.80 1009.72 1009.61 1009.39 1009.32 1009.22 1009.06 1008.80 1008.39 1008.07 1007.86 1008.33 1008.69 1008.86 1009.22 1009.86 1010.81 1011.49 1012.27
1020.72 1020.50 1020.03 1019.67 1019.40 1019.23 1018.58 1018.38 1018.47 1018.72 1017.75 1017.81 1017.82 1017.51 1016.77 1016.40 1016.26 1015.69 1015.21 1014.62 1014.35 1014.26 1013.75 1013.34 1012.46 1011.28 1009.72 1009.57 1009.28 1009.21 1009.30 1009.37 1009.29 1009.27 1009.05 1008.60 1008.74 1008.95 1009.23 1009.65 1010.04 1010.41 1011.06 1011.62 1012.31
Thickness
5678 5680 5682 5680 5679 5679 5679 5679 5678 5676 5677 5679 5681 5681 5682 5687 5692 5702 5701 5705 5708 5710 5717 5722 5725 5725 5728 5727 5732 5734 5719 5728 5741 5744 5757 5767 5762 5771 5778 5768 5773 5776 5779 5781 5775
5677 5677 5677 5675 5674 5676 5674 5673 5671 5670 5673 5672 5673 5673 5676 5678 5685 5695 5696 5695 5698 5701 5706 5708 5708 5713 5713 5717 5719 5718 5719 5732 5751 5758 5755 5764 5762 5761 5759 5761 5763 5767 5769 5774 5766
5674 5675 5673 5672 5672 5672 5672 5669 5668 5669 5669 5667 5666 5665 5669 5671 5677 5685 5687 5689 5690 5694 5696 5699 5699 5700 5699 5707 5713 5719 5717 5736 5740 5748 5753 5753 5752 5760 5757 5751 5771 5765 5761 5761 5760
5672 5671 5670 5670 5670 5669 5667 5665 5666 5665 5664 5662 5659 5659 5663 5667 5672 5680 5678 5679 5683 5686 5688 5688 5688 5685 5684 5690 5705 5698 5718 5721 5730 5740 5739 5741 5754 5748 5756 5766 5772 5769 5767 5757 5758
5668 5668 5667 5666 5665 5664 5662 5662 5662 5661 5659 5657 5654 5653 5659 5667 5670 5674 5671 5672 5675 5678 5677 5677 5676 5676 5673 5684 5689 5692 5702 5714 5720 5728 5733 5738 5737 5743 5745 5761 5759 5758 5760 5754 5755
5666 5665 5664 5664 5663 5663 5663 5661 5660 5659 5656 5653 5649 5646 5651 5659 5667 5665 5664 5666 5667 5668 5668 5668 5669 5671 5668 5668 5671 5689 5690 5699 5709 5715 5721 5719 5728 5730 5750 5755 5748 5751 5754 5751 5751
5664 5664 5664 5664 5664 5663 5662 5661 5661 5659 5656 5651 5645 5643 5644 5658 5661 5660 5658 5660 5660 5661 5658 5660 5661 5656 5659 5658 5670 5667 5666 5683 5696 5702 5705 5713 5711 5718 5745 5741 5742 5740 5747 5747 5742
5662 5661 5661 5661 5662 5662 5661 5661 5661 5659 5655 5648 5641 5639 5649 5660 5657 5658 5658 5657 5653 5651 5649 5649 5648 5644 5642 5652 5653 5652 5662 5658 5686 5692 5702 5697 5707 5729 5734 5734 5737 5736 5741 5736 5731
5659 5657 5657 5658 5659 5661 5662 5659 5657 5655 5650 5643 5640 5634 5649 5656 5654 5655 5652 5647 5647 5643 5640 5640 5634 5629 5629 5623 5628 5638 5644 5659 5665 5686 5687 5688 5702 5727 5725 5726 5728 5731 5730 5734 5728
5655 5654 5654 5654 5655 5657 5661 5659 5653 5650 5646 5641 5638 5636 5652 5647 5649 5647 5646 5640 5638 5634 5627 5622 5621 5613 5615 5612 5608 5621 5627 5643 5654 5671 5674 5680 5691 5702 5709 5716 5719 5723 5725 5731 5734
5652 5652 5651 5651 5652 5653 5658 5660 5657 5656 5650 5642 5639 5635 5645 5648 5646 5643 5641 5634 5631 5624 5616 5612 5604 5602 5607 5607 5605 5604 5609 5623 5647 5663 5664 5675 5683 5690 5697 5703 5708 5716 5719 5724 5728
5648 5649 5648 5647 5647 5651 5652 5645 5631 5626 5631 5644 5637 5634 5639 5635 5633 5643 5637 5626 5621 5614 5610 5601 5599 5604 5601 5591 5584 5587 5591 5607 5632 5653 5654 5669 5675 5692 5691 5699 5707 5710 5715 5721 5723
5644 5644 5645 5645 5645 5646 5642 5634 5627 5624 5626 5644 5643 5640 5640 5633 5634 5637 5632 5624 5616 5607 5600 5587 5598 5599 5587 5580 5573 5577 5580 5595 5614 5634 5647 5663 5664 5680 5685 5692 5697 5706 5712 5716 5715
5640 5639 5641 5643 5641 5637 5637 5629 5625 5621 5630 5646 5644 5645 5641 5634 5629 5639 5632 5622 5613 5601 5593 5587 5592 5583 5578 5574 5575 5568 5590 5598 5610 5615 5623 5655 5652 5678 5689 5687 5691 5699 5703 5706 5707
5636 5635 5634 5637 5637 5636 5630 5625 5623 5619 5628 5646 5645 5650 5645 5630 5632 5633 5632 5619 5608 5596 5585 5585 5584 5577 5578 5578 5583 5577 5591 5597 5604 5619 5637 5640 5653 5688 5682 5684 5694 5699 5705 5702 5705
5632 5631 5630 5630 5630 5629 5625 5623 5623 5625 5625 5636 5641 5634 5636 5634 5632 5630 5626 5621 5609 5595 5580 5581 5587 5576 5581 5586 5587 5594 5591 5596 5603 5608 5608 5650 5654 5677 5679 5687 5699 5703 5702 5699 5700
5629 5627 5627 5625 5629 5622 5621 5625 5631 5625 5635 5631 5628 5630 5625 5625 5628 5624 5618 5613 5598 5585 5567 5571 5581 5583 5577 5584 5590 5592 5596 5580 5580 5581 5608 5646 5642 5674 5680 5683 5687 5686 5691 5691 5689
5627 5625 5622 5622 5619 5616 5620 5628 5619 5627 5626 5630 5624 5625 5621 5621 5628 5621 5617 5611 5602 5587 5562 5549 5561 5578 5584 5580 5592 5602 5602 5590 5591 5615 5631 5631 5639 5671 5673 5670 5671 5673 5683 5679 5677
5624 5623 5621 5618 5615 5614 5621 5623 5628 5623 5621 5619 5626 5621 5622 5620 5610 5616 5616 5608 5605 5596 5575 5557 5564 5586 5590 5589 5593 5595 5591 5574 5571 5620 5636 5643 5658 5670 5661 5662 5662 5666 5667 5664 5664
5622 5622 5619 5612 5610 5614 5619 5616 5619 5618 5617 5615 5609 5614 5611 5617 5614 5616 5615 5610 5603 5599 5596 5573 5560 5587 5591 5598 5601 5597 5594 5576 5576 5608 5625 5643 5646 5663 5662 5664 5658 5658 5661 5655 5654
5619 5622 5614 5608 5608 5615 5615 5612 5610 5616 5612 5611 5610 5609 5612 5606 5607 5610 5612 5614 5604 5603 5598 5588 5575 5572 5594 5597 5597 5607 5601 5607 5613 5614 5624 5640 5646 5655 5657 5658 5658 5659 5654 5650 5649
5615 5617 5608 5605 5608 5600 5607 5602 5599 5609 5611 5610 5607 5606 5606 5606 5605 5605 5606 5608 5600 5599 5600 5599 5594 5570 5584 5607 5606 5606 5612 5618 5614 5615 5620 5629 5638 5648 5651 5652 5655 5650 5643 5642 5639
5613 5610 5605 5603 5604 5603 5598 5597 5598 5602 5605 5605 5605 5603 5605 5603 5599 5604 5607 5610 5601 5600 5599 5601 5603 5599 5595 5603 5606 5608 5614 5615 5621 5623 5622 5621 5634 5644 5648 5645 5646 5642 5637 5633 5630
5602 5607 5604 5599 5588 5591 5591 5594 5594 5597 5596 5596 5599 5600 5598 5601 5603 5602 5602 5607 5604 5600 5597 5596 5606 5602 5599 5600 5595 5600 5609 5614 5621 5618 5624 5627 5637 5651 5646 5639 5636 5636 5633 5630 5626
5595 5599 5590 5599 5590 5584 5581 5583 5584 5589 5592 5594 5593 5589 5586 5589 5598 5599 5602 5602 5606 5598 5601 5597 5606 5606 5610 5612 5606 5606 5608 5609 5610 5620 5615 5628 5626 5641 5643 5639 5640 5637 5630 5624 5619
5593 5588 5579 5584 5574 5575 5573 5582 5578 5583 5582 5588 5587 5586 5583 5581 5589 5590 5594 5599 5598 5602 5600 5598 5605 5605 5611 5612 5609 5604 5611 5610 5612 5615 5618 5624 5624 5630 5630 5633 5633 5631 5623 5619 5614
5574 5573 5578 5573 5574 5571 5579 5577 5574 5570 5582 5578 5575 5575 5581 5586 5584 5588 5590 5594 5595 5590 5592 5593 5598 5603 5613 5613 5613 5612 5613 5612 5614 5615 5619 5621 5626 5628 5628 5625 5626 5625 5620 5616 5611